Location: Unspecified
(0.0000°N, 0.0000°E)
Time: 03:40:34
(UTC+00:00)

deb r/b Ablestar - Pass Details

Date: 13 February 2026
Orbit: 889 x 1146 km, 67.2° (Epoch: 11 March)

Event Time Altitude Azimuth Distance (km) Brightness Sun altitude
Rises 04:34:59 0° 354° (N) 3,874 ? -24.1°
Reaches altitude 10° 04:37:43 10° 1° (N) 2,950 ? -23.4°
Maximum altitude 04:44:22 44° 71° (ENE) 1,510 ? -21.8°
Drops below altitude 10° 04:51:12 10° 141° (SE) 3,039 ? -20.2°
Sets 04:54:03 0° 147° (SSE) 4,000 ? -19.5°
